20060720,000021,1123200,33.880156,-120.079167,24.9,20.451,33.545,46.806,1527.93,0.0,0.086,0.251,20.454, NaN, NaN,23.433,   NaN,18.68,1011.19,93.93,18.69,113.7,105.2,1.8,1.5,256.4,255.3,5.9,5.7,NaN, NaN,19.0,88.6,91.1,1153353621,1153353620,2,10.0,000021,000020,88.6,33.880215,-120.079358,10.00,NaN,NaN,20.732, NaN,NaN,NaN, NaN, NaN
20060720,000051,1123231,33.880163,-120.077503,24.9,20.467,33.543,46.819,1650.90,0.0,0.081,0.242,20.446, NaN, NaN,23.427,   NaN,18.68,1011.17,93.88,18.68,123.9,102.4,1.7,1.2,258.7,257.7,5.9,5.5,NaN, NaN,19.0,91.9,91.7,1153353651,1153353650,2,10.1,000051,000050,91.9,33.880226,-120.077685,9.85,NaN,NaN,20.748, NaN,NaN,NaN, NaN, NaN
20060720,000121,1123261,33.880168,-120.075850,24.8,20.453,33.548,46.812,1756.32,0.0,0.078,0.239,20.429, NaN, NaN,23.434,   NaN,18.72,1011.19,93.94,18.74,129.1,106.1,1.9,1.0,256.3,259.1,6.3,5.5,NaN, NaN,19.0,90.1,89.2,1153353681,1153353680,2,10.0,000081,000080,90.1,33.880231,-120.076037,9.83,NaN,NaN,20.734, NaN,NaN,NaN, NaN, NaN
20060720,000151,1123290,33.880148,-120.074203,24.9,20.388,33.555,46.757,1985.78,0.0,0.075,0.236,20.410, NaN, NaN,23.457,   NaN,18.72,1011.16,93.87,18.73,124.7,109.1,2.1,1.4,254.3,256.6,6.4,5.7,NaN, NaN,19.0,88.4,89.1,1153353711,1153353710,2,10.1,000111,000110,88.4,33.880201,-120.074385,9.78,NaN,NaN,20.669, NaN,NaN,NaN, NaN, NaN
20060720,000221,1123320,33.880146,-120.072530,24.9,20.366,33.553,46.732,1764.46,0.0,0.075,0.229,20.395, NaN, NaN,23.462,   NaN,18.76,1011.12,93.93,18.76,111.2,105.6,1.9,1.8,255.1,253.0,5.9,5.8,NaN, NaN,19.0,88.8,90.0,1153353741,1153353740,2,10.0,000141,000140,88.8,33.880195,-120.072712,9.99,NaN,NaN,20.647, NaN,NaN,NaN, NaN, NaN
20060720,000251,1123350,33.880161,-120.070850,24.9,20.065,33.589,46.481,1619.78,0.0,0.073,0.221,20.383, NaN, NaN,23.569,   NaN,18.82,1011.16,93.95,18.82,100.2,107.0,1.7,1.8,255.5,252.7,5.6,5.9,NaN, NaN,18.0,91.3,88.4,1153353771,1153353770,2,10.2,000171,000170,91.3,33.880213,-120.071035,9.99,NaN,NaN,20.346, NaN,NaN,NaN, NaN, NaN
20060720,000321,1123380,33.880133,-120.069158,24.9,20.160,33.540,46.515,1501.54,0.0,0.072,0.214,20.375, NaN, NaN,23.506,   NaN,18.81,1011.13,93.72,18.81,103.3,112.6,1.7,1.7,256.0,255.0,5.9,6.0,NaN, NaN,19.0,88.8,89.8,1153353801,1153353800,2,10.2,000201,000200,88.8,33.880178,-120.069337,10.24,NaN,NaN,20.441, NaN,NaN,NaN, NaN, NaN
20060720,000351,1123411,33.880125,-120.067473,24.9,20.184,33.532,46.527,1836.46,0.0,0.071,0.221,20.359, NaN, NaN,23.494,   NaN,18.83,1011.14,93.61,18.83,106.6,107.3,1.9,1.9,255.2,252.8,6.0,6.0,NaN, NaN,18.0,90.6,89.6,1153353831,1153353830,2,10.1,000231,000230,90.6,33.880175,-120.067645,10.07,NaN,NaN,20.465, NaN,NaN,NaN, NaN, NaN
20060720,000421,1123441,33.880110,-120.065798,24.8,20.248,33.528,46.586,2120.78,0.0,0.073,0.237,20.326, NaN, NaN,23.474,   NaN,18.82,1011.13,93.56,18.82,112.8,100.3,2.2,2.1,254.0,249.7,6.2,5.9,NaN, NaN,18.0,89.4,88.9,1153353861,1153353860,2,10.1,000261,000260,89.4,33.880166,-120.065960,10.11,NaN,NaN,20.529, NaN,NaN,NaN, NaN, NaN
20060720,000451,1123470,33.880088,-120.064120,24.8,20.216,33.545,46.575,1782.28,0.0,0.071,0.220,20.296, NaN, NaN,23.495,   NaN,18.81,1011.16,93.59,18.81,105.6,106.9,2.6,2.0,249.9,251.2,6.4,6.0,NaN, NaN,18.0,89.4,89.1,1153353891,1153353890,2,10.2,000291,000290,89.4,33.880148,-120.064283,10.14,NaN,NaN,20.497, NaN,NaN,NaN, NaN, NaN
20060720,000521,1123500,33.880083,-120.062440,25.0,20.116,33.556,46.491,1964.12,0.0,0.070,0.222,20.288, NaN, NaN,23.530,   NaN,18.83,1011.12,93.49,18.83,100.8,107.4,2.6,1.9,247.7,251.7,6.3,6.0,NaN, NaN,18.0,89.8,93.4,1153353921,1153353920,2,10.1,000321,000320,89.8,33.880143,-120.062607,10.08,NaN,NaN,20.397, NaN,NaN,NaN, NaN, NaN
20060720,000551,1123530,33.880083,-120.060770,24.9,20.183,33.531,46.525,1761.51,0.0,0.068,0.212,20.290, NaN, NaN,23.493,   NaN,18.76,1011.19,93.46,18.75,104.0,103.5,2.5,1.8,247.4,252.6,6.2,5.8,NaN, NaN,19.0,90.8,90.7,1153353951,1153353950,2,10.0,000351,000350,90.8,33.880143,-120.060935,10.05,NaN,NaN,20.464, NaN,NaN,NaN, NaN, NaN
20060720,000621,1123560,33.880051,-120.059110,24.9,20.268,33.526,46.601,1634.61,0.0,0.070,0.212,20.298, NaN, NaN,23.467,   NaN,18.76,1011.12,93.33,18.77,116.4,98.8,2.1,2.1,253.3,249.0,6.2,5.8,NaN, NaN,19.0,89.3,93.1,1153353981,1153353980,2,10.0,000381,000380,89.3,33.880110,-120.059282,9.92,NaN,NaN,20.549, NaN,NaN,NaN, NaN, NaN
20060720,000651,1123591,33.880040,-120.057450,24.8,20.293,33.532,46.634,1735.84,0.0,0.073,0.225,20.303, NaN, NaN,23.465,   NaN,18.73,1011.17,93.33,18.73,127.1,100.9,2.2,2.5,254.4,246.0,6.3,6.1,NaN, NaN,18.0,88.3,92.5,1153354011,1153354010,2,9.7,000411,000410,88.3,33.880088,-120.057623,9.98,NaN,NaN,20.574, NaN,NaN,NaN, NaN, NaN
20060720,000721,1123620,33.880036,-120.055780,24.9,20.298,33.540,46.649,1636.00,0.0,0.071,0.215,20.313, NaN, NaN,23.469,   NaN,18.71,1011.16,93.37,18.72,118.7,106.3,3.1,2.3,246.4,248.2,6.9,6.2,NaN, NaN,18.0,89.8,90.5,1153354041,1153354040,2,10.0,000441,000440,89.8,33.880088,-120.055948,9.95,NaN,NaN,20.579, NaN,NaN,NaN, NaN, NaN
20060720,000751,1123650,33.880003,-120.054083,24.9,20.285,33.543,46.640,1383.01,0.0,0.072,0.210,20.334, NaN, NaN,23.475,   NaN,18.73,1011.19,93.38,18.74,119.0,102.8,2.7,2.1,249.9,250.1,6.7,6.0,NaN, NaN,18.0,89.6,90.5,1153354071,1153354070,2,10.1,000471,000470,89.6,33.880055,-120.054258,10.07,NaN,NaN,20.566, NaN,NaN,NaN, NaN, NaN
20060720,000821,1123680,33.879991,-120.052375,25.0,20.313,33.539,46.663,1651.08,0.0,0.072,0.219,20.360, NaN, NaN,23.464,   NaN,18.78,1011.21,93.45,18.79,138.6,99.6,1.8,1.9,259.7,251.8,6.3,5.8,NaN, NaN,18.0,90.6,91.6,1153354101,1153354100,2,10.3,000501,000500,90.6,33.880046,-120.052545,10.15,NaN,NaN,20.594, NaN,NaN,NaN, NaN, NaN
20060720,000851,1123710,33.879980,-120.050683,25.1,20.381,33.530,46.718,1806.94,0.0,0.080,0.244,20.383, NaN, NaN,23.440,   NaN,18.75,1011.20,93.34,18.76,142.5,97.8,1.8,2.0,259.8,249.6,6.4,5.9,NaN, NaN,17.0,88.6,90.9,1153354131,1153354130,2,10.3,000531,000530,88.6,33.880030,-120.050855,10.09,NaN,NaN,20.662, NaN,NaN,NaN, NaN, NaN
20060720,000921,1123741,33.879976,-120.049000,24.9,20.441,33.530,46.777,1909.14,0.0,0.072,0.227,20.375, NaN, NaN,23.424,   NaN,18.74,1011.24,93.21,18.76,120.9,100.2,2.5,2.2,251.2,248.2,6.6,6.0,NaN, NaN,17.0,90.9,90.0,1153354161,1153354160,2,10.3,000561,000560,90.9,33.880031,-120.049172,10.18,NaN,NaN,20.722, NaN,NaN,NaN, NaN, NaN
20060720,000951,1123771,33.879965,-120.047323,24.8,20.364,33.555,46.733,1998.11,0.0,0.073,0.233,20.341, NaN, NaN,23.463,   NaN,18.67,1011.20,92.96,18.68,114.8,107.4,2.6,1.9,249.3,252.2,6.6,6.0,NaN, NaN,17.0,88.8,90.8,1153354191,1153354190,2,10.0,000591,000590,88.8,33.880015,-120.047498,10.05,NaN,NaN,20.645, NaN,NaN,NaN, NaN, NaN
20060720,001021,1123800,33.879975,-120.045640,25.0,20.271,33.563,46.651,1710.50,0.0,0.072,0.220,20.292, NaN, NaN,23.494,   NaN,18.67,1011.20,93.18,18.67,114.2,102.0,1.7,2.0,257.2,250.2,5.9,5.8,NaN, NaN,18.0,90.8,89.6,1153354221,1153354220,2,10.1,000621,000620,90.8,33.880028,-120.045815,10.17,NaN,NaN,20.552, NaN,NaN,NaN, NaN, NaN
20060720,001051,1123830,33.879948,-120.043967,24.8,20.186,33.566,46.571,1700.21,0.0,0.070,0.214,20.258, NaN, NaN,23.519,   NaN,18.63,1011.20,92.90,18.62,92.7,91.8,1.5,2.7,258.2,243.0,5.4,5.9,NaN, NaN,18.0,89.8,87.4,1153354251,1153354250,2,9.9,000651,000650,89.8,33.880000,-120.044138,10.01,NaN,NaN,20.467, NaN,NaN,NaN, NaN, NaN
20060720,001121,1123860,33.879925,-120.042298,25.0,20.148,33.553,46.519,1655.76,0.0,0.072,0.219,20.246, NaN, NaN,23.519,   NaN,18.60,1011.13,92.97,18.60,106.1,94.6,1.8,2.8,257.5,242.9,5.7,6.0,NaN, NaN,18.0,89.4,88.9,1153354281,1153354280,2,9.9,000681,000680,89.4,33.879980,-120.042463,9.92,NaN,NaN,20.429, NaN,NaN,NaN, NaN, NaN
20060720,001151,1123890,33.879896,-120.040633,24.9,20.192,33.535,46.539,2022.12,0.0,0.071,0.227,20.255, NaN, NaN,23.494,   NaN,18.58,1011.20,93.11,18.59,111.3,101.5,2.3,2.4,251.7,246.9,6.1,6.0,NaN, NaN,18.0,89.4,92.0,1153354311,1153354310,2,10.1,000711,000710,89.4,33.879955,-120.040800,9.91,NaN,NaN,20.473, NaN,NaN,NaN, NaN, NaN
20060720,001221,1123921,33.879885,-120.038970,25.2,20.251,33.529,46.589,2123.25,0.0,0.076,0.244,20.277, NaN, NaN,23.473,   NaN,18.55,1011.18,93.09,18.56,99.2,106.1,2.5,2.0,247.7,251.4,6.2,5.9,NaN, NaN,18.0,90.8,91.9,1153354341,1153354340,2,9.9,000741,000740,90.8,33.879940,-120.039135,9.97,NaN,NaN,20.532, NaN,NaN,NaN, NaN, NaN
20060720,001251,1123951,33.879846,-120.037298,24.8,20.303,33.529,46.640,2084.05,0.0,0.072,0.233,20.311, NaN, NaN,23.460,   NaN,18.55,1011.16,93.15,18.54,93.3,102.5,2.0,2.0,254.0,250.6,5.9,5.9,NaN, NaN,18.0,89.4,90.4,1153354371,1153354370,2,10.1,000771,000770,89.4,33.879896,-120.037465,10.05,NaN,NaN,20.584, NaN,NaN,NaN, NaN, NaN
20060720,001321,1123980,33.879846,-120.035615,25.0,20.366,33.528,46.701,1968.83,0.0,0.075,0.236,20.352, NaN, NaN,23.442,   NaN,18.55,1011.19,93.31,18.57,101.5,98.8,2.0,2.0,254.6,249.6,6.0,5.8,NaN, NaN,18.0,89.6,91.3,1153354401,1153354400,2,10.2,000801,000800,89.6,33.879903,-120.035777,10.12,NaN,NaN,20.647, NaN,NaN,NaN, NaN, NaN
20060720,001351,1124010,33.879805,-120.033928,25.0,20.426,33.525,46.757,1816.59,0.0,0.077,0.237,20.394, NaN, NaN,23.424,   NaN,18.59,1011.18,93.31,18.59,112.2,99.3,1.8,2.1,257.2,249.3,5.9,5.9,NaN, NaN,18.0,89.6,94.0,1153354431,1153354430,2,9.9,000831,000830,89.6,33.879860,-120.034095,9.99,NaN,NaN,20.707, NaN,NaN,NaN, NaN, NaN
20060720,001421,1124040,33.879786,-120.032257,25.0,20.469,33.531,46.805,1431.01,0.0,0.075,0.218,20.423, NaN, NaN,23.417,   NaN,18.61,1011.22,93.21,18.61,91.6,99.0,1.6,2.3,261.5,247.3,5.5,6.0,NaN, NaN,17.0,89.6,89.9,1153354461,1153354460,2,10.1,000861,000860,89.6,33.879845,-120.032415,10.04,NaN,NaN,20.750, NaN,NaN,NaN, NaN, NaN
20060720,001451,1124070,33.879775,-120.030582,25.0,20.505,33.535,46.846,2048.99,0.0,0.073,0.235,20.434, NaN, NaN,23.410,   NaN,18.61,1011.16,93.31,18.61,109.1,98.5,1.7,2.3,260.4,246.9,5.7,5.9,NaN, NaN,16.0,89.7,89.6,1153354491,1153354490,2,10.1,000891,000890,89.7,33.879831,-120.030735,9.97,NaN,NaN,20.786, NaN,NaN,NaN, NaN, NaN
20060720,001521,1124101,33.879753,-120.028915,24.8,20.473,33.547,46.829,1775.98,0.0,0.075,0.229,20.439, NaN, NaN,23.428,   NaN,18.58,1011.18,93.00,18.58,139.6,94.6,1.5,2.6,260.3,244.3,5.8,5.9,NaN, NaN,16.0,90.1,90.8,1153354521,1153354520,2,9.9,000921,000920,90.1,33.879808,-120.029082,9.96,NaN,NaN,20.754, NaN,NaN,NaN, NaN, NaN
20060720,001551,1124130,33.879741,-120.027255,24.7,20.435,33.551,46.797,1341.69,0.0,0.077,0.222,20.443, NaN, NaN,23.441,   NaN,18.54,1011.17,93.04,18.55,110.5,101.5,1.6,2.8,256.5,244.7,5.4,6.2,NaN, NaN,15.0,89.8,88.4,1153354551,1153354550,2,9.9,000951,000950,89.8,33.879796,-120.027423,9.84,NaN,NaN,20.716, NaN,NaN,NaN, NaN, NaN
20060720,001621,1124160,33.879726,-120.025587,25.0,20.451,33.542,46.801,1528.78,0.0,0.078,0.231,20.454, NaN, NaN,23.430,   NaN,18.54,1011.18,93.18,18.55,83.7,103.7,1.7,2.5,254.7,246.9,5.3,6.1,NaN, NaN,15.0,89.4,92.2,1153354581,1153354580,2,9.8,000981,000980,89.4,33.879765,-120.025815,10.01,NaN,NaN,20.732, NaN,NaN,NaN, NaN, NaN
20060720,001651,1124190,33.879703,-120.023923,25.1,20.466,33.540,46.814,1490.81,0.0,0.077,0.226,20.468, NaN, NaN,23.425,   NaN,18.53,1011.21,93.22,18.52,92.3,102.0,2.2,2.1,250.4,249.2,5.8,5.9,NaN, NaN,15.0,89.6,92.9,1153354611,1153354610,2,9.8,001011,001010,89.6,33.879753,-120.024117,9.89,NaN,NaN,20.747, NaN,NaN,NaN, NaN, NaN
20060720,001721,1124220,33.879685,-120.022258,25.0,20.496,33.538,46.842,1441.96,0.0,0.077,0.225,20.492, NaN, NaN,23.415,   NaN,18.54,1011.15,93.27,18.54,93.1,102.2,2.2,1.9,251.0,251.1,5.8,5.8,NaN, NaN,16.0,90.3,93.2,1153354641,1153354640,2,10.0,001041,001040,90.3,33.879738,-120.022442,9.87,NaN,NaN,20.777, NaN,NaN,NaN, NaN, NaN
20060720,001751,1124251,33.879666,-120.020592,25.0,20.532,33.537,46.875,1377.78,0.0,0.075,0.216,20.528, NaN, NaN,23.405,   NaN,18.58,1011.21,93.46,18.58,87.8,97.4,1.6,2.1,262.4,248.8,5.4,5.7,NaN, NaN,17.0,89.8,91.2,1153354671,1153354670,2,10.1,001071,001070,89.8,33.879720,-120.020773,9.94,NaN,NaN,20.813, NaN,NaN,NaN, NaN, NaN
20060720,001821,1124281,33.879648,-120.018912,25.0,20.594,33.531,46.929,1826.56,0.0,0.077,0.238,20.578, NaN, NaN,23.384,   NaN,18.59,1011.19,93.37,18.59,123.6,98.0,1.7,2.3,261.1,247.4,5.8,5.9,NaN, NaN,17.0,90.8,93.3,1153354701,1153354700,2,10.2,001101,001100,90.8,33.879705,-120.019092,9.85,NaN,NaN,20.875, NaN,NaN,NaN, NaN, NaN
20060720,001851,1124310,33.879625,-120.017223,25.2,20.673,33.527,47.002,1986.35,0.0,0.078,0.247,20.636, NaN, NaN,23.359,   NaN,18.59,1011.19,93.27,18.59,119.0,96.1,1.6,2.3,259.4,246.6,5.7,5.9,NaN, NaN,17.0,88.9,91.0,1153354731,1153354730,2,10.2,001131,001130,88.9,33.879683,-120.017405,10.00,NaN,NaN,20.954, NaN,NaN,NaN, NaN, NaN
20060720,001921,1124340,33.879611,-120.015525,25.0,20.760,33.527,47.087,1877.09,0.0,0.083,0.257,20.697, NaN, NaN,23.336,   NaN,18.59,1011.18,93.28,18.59,105.4,97.4,1.5,2.3,259.4,247.1,5.4,5.9,NaN, NaN,17.0,89.4,90.0,1153354761,1153354760,2,10.3,001161,001160,89.4,33.879673,-120.015713,10.21,NaN,NaN,21.041, NaN,NaN,NaN, NaN, NaN
20060720,001951,1124370,33.879595,-120.013823,24.9,20.827,33.535,47.164,1519.25,0.0,0.083,0.244,20.760, NaN, NaN,23.323,   NaN,18.58,1011.17,93.30,18.58,81.0,98.8,1.5,2.2,258.6,248.3,5.4,6.0,NaN, NaN,17.0,90.8,90.8,1153354791,1153354790,2,10.4,001191,001190,90.8,33.879660,-120.014007,10.21,NaN,NaN,21.109, NaN,NaN,NaN, NaN, NaN
20060720,002021,1124400,33.879581,-120.012120,24.9,20.891,33.539,47.232,1358.52,0.0,0.085,0.242,20.824, NaN, NaN,23.309,   NaN,18.59,1011.17,93.16,18.60,84.6,96.4,1.6,2.4,256.5,246.4,5.7,6.0,NaN, NaN,17.0,89.8,88.2,1153354821,1153354820,2,10.2,001221,001220,89.8,33.879636,-120.012307,10.20,NaN,NaN,21.173, NaN,NaN,NaN, NaN, NaN
20060720,002051,1124431,33.879563,-120.010418,24.9,20.945,33.545,47.293,1811.53,0.0,0.085,0.258,20.903, NaN, NaN,23.299,   NaN,18.58,1011.20,93.21,18.58,102.3,97.6,2.1,2.4,251.3,246.9,6.2,6.0,NaN, NaN,17.0,89.1,88.9,1153354851,1153354850,2,10.2,001251,001250,89.1,33.879623,-120.010603,10.19,NaN,NaN,21.227, NaN,NaN,NaN, NaN, NaN
20060720,002121,1124460,33.879558,-120.008722,25.1,21.047,33.538,47.384,1637.95,0.0,0.087,0.259,20.994, NaN, NaN,23.266,   NaN,18.59,1011.18,93.25,18.58,105.0,104.0,2.0,2.0,253.1,252.1,6.1,6.0,NaN, NaN,17.0,89.8,91.5,1153354881,1153354880,2,10.2,001281,001280,89.8,33.879621,-120.008905,10.20,NaN,NaN,21.329, NaN,NaN,NaN, NaN, NaN
20060720,002151,1124490,33.879535,-120.007012,25.2,21.186,33.526,47.506,1568.78,0.0,0.090,0.263,21.074, NaN, NaN,23.219,   NaN,18.57,1011.15,93.19,18.58,112.0,118.1,1.9,1.9,255.0,255.9,6.2,6.1,NaN, NaN,18.0,89.2,93.5,1153354911,1153354910,2,10.1,001311,001310,89.2,33.879605,-120.007197,10.27,NaN,NaN,21.468, NaN,NaN,NaN, NaN, NaN
20060720,002221,1124520,33.879528,-120.005300,24.9,21.263,33.539,47.598,1847.68,0.0,0.091,0.278,21.148, NaN, NaN,23.208,   NaN,18.57,1011.20,93.23,18.57,131.6,114.7,2.1,1.9,257.0,254.6,6.5,6.2,NaN, NaN,18.0,89.6,90.3,1153354941,1153354940,2,10.1,001341,001340,89.6,33.879596,-120.005485,10.28,NaN,NaN,21.545, NaN,NaN,NaN, NaN, NaN
20060720,002252,1124551,33.879521,-120.003527,24.8,21.318,33.546,47.662,1373.29,0.0,0.092,0.263,21.193, NaN, NaN,23.198,   NaN,18.61,1011.19,93.27,18.62,128.4,105.1,2.1,1.9,255.6,251.8,6.4,6.0,NaN, NaN,18.0,90.4,90.3,1153354972,1153354971,2,10.4,001372,001371,90.4,33.879588,-120.003710,10.26,NaN,NaN,21.600, NaN,NaN,NaN, NaN, NaN
20060720,002322,1124581,33.879510,-120.001815,24.8,21.334,33.557,47.692,1309.72,0.0,0.095,0.267,21.195, NaN, NaN,23.202,   NaN,18.65,1011.18,93.31,18.65,102.3,100.6,2.2,2.2,251.8,248.8,6.2,6.1,NaN, NaN,17.0,89.4,86.5,1153355002,1153355001,2,10.3,001402,001401,89.4,33.879573,-120.001993,10.40,NaN,NaN,21.616, NaN,NaN,NaN, NaN, NaN
20060720,002352,1124611,33.879505,-120.000107,25.1,21.245,33.573,47.624,1251.87,0.0,0.095,0.265,21.174, NaN, NaN,23.238,   NaN,18.65,1011.18,93.37,18.66,94.6,94.8,2.3,2.5,249.2,245.2,6.0,6.0,NaN, NaN,17.0,89.6,92.5,1153355032,1153355031,2,10.2,001432,001431,89.6,33.879568,-120.000285,10.21,NaN,NaN,21.527, NaN,NaN,NaN, NaN, NaN
20060720,002422,1124641,33.879498,-119.998391,25.0,21.143,33.582,47.535,1225.23,0.0,0.093,0.261,21.145, NaN, NaN,23.273,   NaN,18.63,1011.19,92.99,18.63,99.4,99.3,2.5,2.4,247.4,247.3,6.1,6.1,NaN, NaN,17.0,90.9,93.5,1153355062,1153355061,2,10.3,001462,001461,90.9,33.879563,-119.998573,10.35,NaN,NaN,21.425, NaN,NaN,NaN, NaN, NaN
20060720,002452,1124672,33.879491,-119.996670,24.8,21.007,33.595,47.416,1464.31,0.0,0.091,0.263,21.118, NaN, NaN,23.320,   NaN,18.58,1011.17,93.04,18.59,102.1,101.5,2.6,2.3,247.6,248.7,6.4,6.1,NaN, NaN,17.0,89.3,89.4,1153355092,1153355091,2,10.4,001492,001491,89.3,33.879546,-119.996848,10.30,NaN,NaN,21.289, NaN,NaN,NaN, NaN, NaN
20060720,002521,1124700,33.879491,-119.995008,24.9,20.801,33.595,47.213,1456.46,0.0,0.088,0.255,21.115, NaN, NaN,23.376,   NaN,18.62,1011.20,93.23,18.62,113.8,96.0,2.1,2.4,253.9,246.9,6.3,6.0,NaN, NaN,17.0,89.6,89.9,1153355121,1153355120,2,10.1,001521,001520,89.6,33.879550,-119.995190,10.14,NaN,NaN,21.083, NaN,NaN,NaN, NaN, NaN
20060720,002551,1124730,33.879490,-119.993288,24.9,20.932,33.544,47.279,1386.95,0.0,0.092,0.263,21.096, NaN, NaN,23.302,   NaN,18.59,1011.11,93.06,18.59,128.8,90.3,1.1,2.4,263.9,245.3,5.8,5.8,NaN, NaN,17.0,89.6,89.4,1153355151,1153355150,2,10.4,001551,001550,89.6,33.879548,-119.993466,10.15,NaN,NaN,21.214, NaN,NaN,NaN, NaN, NaN
20060720,002621,1124761,33.879480,-119.991536,25.0,20.721,33.580,47.116,1430.70,0.0,0.087,0.251,21.081, NaN, NaN,23.387,   NaN,18.59,1011.12,93.00,18.61,108.8,89.3,1.1,2.6,261.8,243.7,5.7,5.9,NaN, NaN,17.0,88.9,91.3,1153355181,1153355180,2,10.4,001581,001580,88.9,33.879538,-119.991718,10.37,NaN,NaN,21.002, NaN,NaN,NaN, NaN, NaN
20060720,002651,1124791,33.879490,-119.989790,24.8,20.542,33.583,46.942,1130.55,0.0,0.086,0.237,21.068, NaN, NaN,23.437,   NaN,18.60,1011.19,92.99,18.60,86.7,89.2,1.5,2.8,255.8,242.3,5.5,6.0,NaN, NaN,17.0,89.1,89.2,1153355211,1153355210,2,10.3,001611,001610,89.1,33.879546,-119.989978,10.40,NaN,NaN,20.823, NaN,NaN,NaN, NaN, NaN
20060720,002721,1124820,33.879488,-119.988063,25.1,20.906,33.498,47.196,1035.77,0.0,0.088,0.240,21.002, NaN, NaN,23.274,   NaN,18.57,1011.24,93.13,18.57,92.5,89.9,1.7,2.8,254.3,242.4,5.6,6.0,NaN, NaN,17.0,91.1,91.7,1153355241,1153355240,2,10.3,001641,001640,91.1,33.879548,-119.988240,10.30,NaN,NaN,21.188, NaN,NaN,NaN, NaN, NaN
20060720,002751,1124850,33.879486,-119.986345,24.9,20.837,33.548,47.189,1025.41,0.0,0.087,0.237,20.914, NaN, NaN,23.331,   NaN,18.54,1011.14,93.08,18.54,93.0,88.9,1.8,2.8,253.9,241.7,5.8,6.0,NaN, NaN,17.0,89.1,92.8,1153355271,1153355270,2,10.2,001671,001670,89.1,33.879538,-119.986523,10.15,NaN,NaN,21.119, NaN,NaN,NaN, NaN, NaN
20060720,002821,1124880,33.879498,-119.984620,25.0,20.584,33.592,46.995,1043.59,0.0,0.086,0.234,20.854, NaN, NaN,23.433,   NaN,18.48,1011.19,93.18,18.48,83.3,88.8,1.7,2.7,256.0,242.2,5.8,5.9,NaN, NaN,17.0,89.9,91.0,1153355301,1153355300,2,10.5,001701,001700,89.9,33.879556,-119.984795,10.24,NaN,NaN,20.865, NaN,NaN,NaN, NaN, NaN
20060720,002852,1124911,33.879536,-119.982836,24.8,20.554,33.560,46.926,1031.49,0.0,0.086,0.234,20.798, NaN, NaN,23.417,   NaN,18.48,1011.21,93.31,18.48,81.3,90.0,1.5,2.6,258.1,243.0,5.6,5.9,NaN, NaN,18.0,89.4,87.9,1153355332,1153355331,2,10.3,001732,001731,89.4,33.879591,-119.983006,10.22,NaN,NaN,20.835, NaN,NaN,NaN, NaN, NaN
20060720,002922,1124941,33.879548,-119.981113,25.1,20.581,33.542,46.930,1292.46,0.0,0.086,0.243,20.741, NaN, NaN,23.395,   NaN,18.43,1011.20,93.34,18.43,89.2,92.4,1.2,2.6,259.0,244.7,5.5,6.0,NaN, NaN,18.0,90.3,91.0,1153355362,1153355361,2,10.1,001762,001761,90.3,33.879606,-119.981280,10.32,NaN,NaN,20.862, NaN,NaN,NaN, NaN, NaN
20060720,002952,1124971,33.879570,-119.979405,25.0,20.575,33.541,46.922,1415.35,0.0,0.085,0.244,20.668, NaN, NaN,23.396,   NaN,NaN,1011.24,93.34,18.41,93.4,97.7,1.1,2.3,260.0,248.3,5.5,6.0,NaN, NaN,18.0,90.6,90.3,1153355392,1153355391,2,10.2,001792,001791,90.6,33.879628,-119.979573,10.11,NaN,NaN,20.856, NaN,NaN,NaN, NaN, NaN
20060720,003021,1125000,33.879600,-119.977755,25.0,20.569,33.537,46.912,1174.00,0.0,0.082,0.229,20.572, NaN, NaN,23.395,   NaN,18.41,1011.23,93.47,18.41,73.1,97.9,1.5,2.2,257.3,248.9,5.3,5.9,NaN, NaN,18.0,89.1,88.6,1153355421,1153355420,2,10.0,001821,001820,89.1,33.879633,-119.978040,10.03,NaN,NaN,20.850, NaN,NaN,NaN, NaN, NaN
20060720,003052,1125032,33.879640,-119.975991,24.8,20.337,33.571,46.726,880.70,0.0,0.082,0.219,20.495, NaN, NaN,23.483,   NaN,18.42,1011.22,93.52,18.43,66.5,93.3,1.5,2.2,255.8,248.1,5.2,5.8,NaN, NaN,18.0,90.8,87.3,1153355452,1153355451,2,10.4,001852,001851,90.8,33.879688,-119.976193,10.13,NaN,NaN,20.618, NaN,NaN,NaN, NaN, NaN
20060720,003121,1125060,33.879651,-119.974325,24.9,20.301,33.551,46.667,1109.48,0.0,0.080,0.220,20.454, NaN, NaN,23.477,   NaN,18.41,1011.24,93.56,18.41,87.1,96.3,1.9,2.1,251.8,249.3,5.7,5.9,NaN, NaN,18.0,88.8,87.9,1153355481,1153355480,2,10.5,001881,001880,88.8,33.879701,-119.974508,10.23,NaN,NaN,20.582, NaN,NaN,NaN, NaN, NaN
20060720,003151,1125091,33.879703,-119.972620,25.1,20.323,33.535,46.668,1165.25,0.0,0.081,0.225,20.452, NaN, NaN,23.459,   NaN,18.45,1011.23,93.63,18.45,104.8,104.7,2.2,1.9,251.0,251.7,6.3,6.1,NaN, NaN,18.0,89.8,89.8,1153355511,1153355510,2,10.1,001911,001910,89.8,33.879760,-119.972791,10.05,NaN,NaN,20.604, NaN,NaN,NaN, NaN, NaN
20060720,003222,1125121,33.879733,-119.970836,25.0,20.402,33.521,46.728,1032.34,0.0,0.075,0.206,20.487, NaN, NaN,23.428,   NaN,18.51,1011.26,93.71,18.51,131.4,103.8,1.7,1.6,257.3,254.4,6.3,5.9,NaN, NaN,18.0,89.8,87.6,1153355542,1153355541,2,10.3,001942,001941,89.8,33.879803,-119.971018,10.35,NaN,NaN,20.683, NaN,NaN,NaN, NaN, NaN
20060720,003252,1125151,33.879780,-119.969123,25.0,20.521,33.513,46.834,1110.29,0.0,0.076,0.211,20.520, NaN, NaN,23.390,   NaN,18.53,1011.26,93.67,18.53,149.3,95.2,1.1,1.5,266.0,253.9,5.9,5.6,NaN, NaN,21.0,90.6,89.8,1153355572,1153355571,2,10.5,001972,001971,90.4,33.879851,-119.969306,10.17,NaN,NaN,20.802, NaN,NaN,NaN, NaN, NaN
20060720,003321,1125180,33.879826,-119.967463,25.1,20.598,33.516,46.913,1076.65,0.0,0.075,0.207,20.555, NaN, NaN,23.371,   NaN,18.55,1011.21,93.65,18.55,101.7,91.8,1.2,1.7,262.8,252.2,5.6,5.6,NaN, NaN,21.0,90.1,87.8,1153355601,1153355600,2,10.4,002001,002000,90.1,33.879898,-119.967646,10.13,NaN,NaN,20.879, NaN,NaN,NaN, NaN, NaN
20060720,003351,1125210,33.879883,-119.965746,25.0,20.596,33.534,46.934,1066.73,0.0,0.078,0.216,20.598, NaN, NaN,23.385,   NaN,18.57,1011.23,93.60,18.58,110.3,90.6,1.4,2.1,259.6,248.9,5.7,5.7,NaN, NaN,21.0,90.8,86.6,1153355631,1153355630,2,10.5,002031,002030,90.8,33.879951,-119.965928,10.28,NaN,NaN,20.877, NaN,NaN,NaN, NaN, NaN
20060720,003421,1125240,33.879901,-119.964011,25.0,20.663,33.527,46.992,1124.59,0.0,0.081,0.224,20.654, NaN, NaN,23.362,   NaN,18.55,1011.20,93.41,18.57,114.8,87.8,1.4,2.4,260.9,245.9,5.6,5.8,NaN, NaN,21.0,90.1,92.2,1153355661,1153355660,2,10.4,002061,002060,90.1,33.879981,-119.964193,10.29,NaN,NaN,20.944, NaN,NaN,NaN, NaN, NaN
20060720,003451,1125271,33.879968,-119.962281,24.9,20.743,33.529,47.073,1125.51,0.0,0.087,0.240,20.711, NaN, NaN,23.342,   NaN,18.53,1011.25,93.41,18.51,99.7,86.8,1.5,2.3,259.3,245.7,5.6,5.7,NaN, NaN,21.0,88.8,86.3,1153355691,1153355690,2,10.4,002091,002090,88.8,33.880040,-119.962395,10.21,NaN,NaN,21.024, NaN,NaN,NaN, NaN, NaN
20060720,003521,1125301,33.880021,-119.960551,25.1,20.831,33.523,47.153,1168.69,0.0,0.090,0.248,20.749, NaN, NaN,23.314,   NaN,18.48,1011.21,93.43,18.48,100.4,86.3,1.4,2.4,259.4,244.8,5.6,5.7,NaN, NaN,22.0,90.9,89.6,1153355721,1153355720,2,10.4,002121,002120,90.9,33.880098,-119.960701,10.34,NaN,NaN,21.113, NaN,NaN,NaN, NaN, NaN
20060720,003552,1125331,33.880085,-119.958751,25.0,20.838,33.538,47.179,1070.65,0.0,0.088,0.242,20.745, NaN, NaN,23.323,   NaN,18.43,1011.23,93.39,18.43,92.7,88.0,1.1,2.4,260.0,245.4,5.5,5.8,NaN, NaN,22.0,89.3,86.3,1153355752,1153355751,2,10.6,002152,002151,89.3,33.880153,-119.958923,10.32,NaN,NaN,21.120, NaN,NaN,NaN, NaN, NaN